Location: Chochol
(49.7771°N, 14.9780°E)
Time: 11:02:33
(UTC+00:00)

Cosmos 1954 Rocket - Pass Details

Date: 09 April 2020
Orbit: 752 x 781 km, 74.1° (Epoch: 25 May)

Event Time Altitude Azimuth Distance (km) Brightness Sun altitude
Rises 19:28:50 0° 203° (SSW) 3,226 7.1 -16.1°
Reaches altitude 10° 19:31:12 10° 204° (SSW) 2,300 6.4 -16.4°
Maximum altitude 19:36:26 86° 293° (WNW) 771 4.0 -17.1°
Drops below altitude 10° 19:41:40 10° 23° (NNE) 2,298 6.6 -17.8°
Sets 19:44:02 0° 24° (NNE) 3,224 7.4 -18.1°
